www.pogodaiklimat.ru

Погода и климат >> Архив погоды >> Россия >> Архангельская область >> Кепино


ПОГОДА в Кепино

  • Прогноз погоды в Кепино
  • Монитор погоды в Кепино
  • Климат города

АРХИВ ПОГОДЫ в Кепино

Время (UTC), дата Ветер
(напр.,м/с)
 
Видим.   Явления Облачность Т
(С)
Тd
(С)
f
(%)
Тe
(С)
Тes
(С)
Комфортность P
(гПа)
Po
(гПа)
Тmin
(С)
Tmax
(С)
R
(мм)
R24
(мм)
S
(см)
18 12.02 ЮЗ 1 10 км 10/10 300 м
[Sc]
-4.7 -5.4 95 -7 -7 1020.9 1011.8
21 12.02 Ю 1 4000 м слабый ливневой снег 10/10 300 м
[Cb cap]
-5.3 -6.2 93 -8 -8 1021.8 1012.7
00 13.02 ЮЗ 2 10 км {ливн. осадки} 10/10 600 м
[Sc]
-5.6 -6.3 95 -10 -10 1022.4 1013.3
03 13.02 Ю 1 10 км 10/10 600 м
[Sc]
-6.2 -6.7 96 -9 -9 1023.0 1013.9 -6.2 0.0 54
06 13.02 Ю 1 10 км 10/10 600 м
[Sc]
-7.6 -8.2 95 -10 -10 1023.4 1014.2 -7.6
09 13.02 Ю 1 10 км 10/10 600 м
[Sc]
-6.5 -7.8 90 -9 -9 1023.9 1014.7
12 13.02 Ю 1 10 км 10/6 600 м
[Sc Ac As]
-6.0 -7.4 90 -8 -8 1023.8 1014.7
15 13.02 штиль 0 10 км ясно -9.2 -10.0 94 -10 -10 1024.1 1014.9 -5.6
18 13.02 ЮЗ 1 10 км ясно -11.7 -12.6 93 -14 -14 1025.3 1015.9
21 13.02 штиль 0 10 км ясно -12.3 -13.4 91 -12 -12 1026.0 1016.7
00 14.02 штиль 0 10 км ясно -16.5 -17.8 90 -17 -17 1026.9 1017.4
03 14.02 Ю 1 20 км ясно -18.8 -20.5 86 -22 -22 1027.3 1017.7 -18.9 54
06 14.02 Ю 1 20 км 4/0
[Ci fib]
-19.7 -21.6 85 -23 -23 1028.0 1018.3 -19.7
09 14.02 Ю 1 20 км 8/0
[Ci fib]
-10.9 -12.3 89 -13 -12 1028.7 1019.4
12 14.02 Ю 1 20 км ясно -8.9 -10.7 87 -11 -11 1028.8 1019.5
15 14.02 штиль 0 20 км 3/0
[Ac trans]
-14.2 -15.3 91 -14 -14 1029.6 1020.1 -8.2
18 14.02 Ю 1 20 км 10/0
[Ac und]
-11.0 -12.0 92 -13 -13 1029.6 1020.3
21 14.02 Ю 1 20 км 10/0
[Ac und]
-9.3 -10.5 91 -12 -12 1029.9 1020.6
00 15.02 Ю 1 20 км 10/0
[Ac und]
-12.2 -13.3 91 -14 -14 1030.1 1020.7
03 15.02 Ю 1 20 км 10/0
[Ac und]
-11.0 -12.3 90 -13 -13 1030.0 1020.6 -16.3 54
06 15.02 ЮЗ 1 20 км 1/0
[Ac trans]
-12.4 -13.6 91 -15 -14 1029.9 1020.5
09 15.02 Ю 2 10 км 10/5 600 м
[Sc Ac As]
-9.2 -11.0 87 -14 -14 1030.2 1020.9
12 15.02 Ю 1 10 км 10/8 600 м
[Sc Ac As]
-7.6 -9.2 88 -10 -10 1030.1 1020.9
15 15.02 ЮЗ 2 10 км 10/10 600 м
[Sc]
-7.8 -9.3 89 -12 -12 1029.7 1020.5 -7.5
18 15.02 ЮЗ 2 10 км 10/10 600 м
[Sc]
-7.2 -8.6 90 -12 -12 1028.9 1019.6
21 15.02 Ю 2 10 км 10/10 600 м
[Sc]
-7.6 -9.1 89 -12 -12 1028.1 1018.9
00 16.02 Ю 2 10 км 10/10 600 м
[Sc]
-8.4 -9.9 89 -13 -13 1027.6 1018.3
03 16.02 Ю 2 10 км 10/10 600 м
[Sc]
-9.6 -11.1 89 -14 -14 1026.5 1017.3 -9.6 54
06 16.02 ЮЗ 2 10 км 10/10 600 м
[Sc]
-10.3 -11.7 89 -15 -15 1026.0 1016.7 -10.3
09 16.02 Ю 1 4000 м слабый ливневой снег 10/10 600 м
[Cb cap]
-9.3 -11.0 87 -12 -12 1026.1 1016.8
12 16.02 Ю 2 10 км {ливн. осадки} 10/10 600 м
[Sc]
-9.1 -10.8 87 -14 -14 1025.7 1016.4
15 16.02 Ю 2 10 км 10/10 600 м
[Sc]
-9.5 -10.9 90 -14 -14 1025.5 1016.2 -8.8 0.0
18 16.02 Ю 1 10 км 10/10 600 м
[Sc]
-10.4 -11.8 89 -13 -13 1024.9 1015.6
21 16.02 ЮЗ 1 10 км 10/10 600 м
[Sc]
-11.4 -12.8 89 -14 -14 1024.7 1015.4
00 17.02 Ю 1 10 км 10/10 600 м
[Sc]
-13.2 -14.6 89 -16 -16 1024.2 1014.8
03 17.02 Ю 1 10 км 10/10 600 м
[Sc]
-13.5 -14.8 90 -16 -16 1023.8 1014.4 -13.5 54
06 17.02 Ю 1 10 км 10/10 600 м
[Sc]
-13.3 -14.7 89 -16 -16 1023.3 1014.0 -13.8
09 17.02 ЮЗ 1 4000 м слабый ливневой снег 10/10 300 м
[Cb cap]
-8.8 -10.5 87 -11 -11 1023.2 1014.0
12 17.02 З 1 4000 м слабый ливневой снег 10/10 600 м
[Cb cap]
-7.0 -8.9 86 -9 -9 1023.5 1014.3
15 17.02 ЮЗ 1 10 км {ливн. осадки} 10/10 600 м
[Sc]
-7.9 -9.0 92 -10 -10 1023.6 1014.4 -7.0 0.3
18 17.02 Ю 1 10 км {ливн. осадки} 3/3 600 м
[Sc]
-10.3 -11.0 95 -13 -13 1023.7 1014.4
21 17.02 ЮЗ 1 4000 м слабый ливневой снег 4/4 600 м
[Cb cap]
-9.5 -10.4 93 -12 -12 1023.5 1014.3
00 18.02 Ю 1 10 км {ливн. осадки} 10/10 600 м
[Sc]
-8.5 -9.5 92 -11 -11 1023.5 1014.3
03 18.02 ЮЗ 1 4000 м слабый ливневой снег 10/10 600 м
[Cb cap]
-7.6 -8.4 94 -10 -10 1023.3 1014.1 -10.4 0.3 54
06 18.02 З 1 10 км {ливн. осадки} 10/10 300 м
[Sc]
-6.7 -7.5 94 -9 -9 1023.4 1014.3
12 18.02 ЮЗ 1 10 км 10/10 300 м
[Sc]
-6.3 -7.5 91 -9 -9 1024.0 1014.9
15 18.02 штиль 0 10 км 10/10 300 м
[Sc]
-7.0 -8.0 93 -8 -8 1024.1 1014.9 -6.1 0.0
18 18.02 штиль 0 4000 м слабый ливневой снег 10/10 300 м
[Cb cap]
-7.7 -8.5 94 -9 -9 1023.9 1014.7
21 18.02 З 1 4000 м слабый ливневой снег 10/10 300 м
[Cb cap]
-8.6 -9.2 95 -11 -11 1023.9 1014.7
00 19.02 В 1 4000 м слабый ливневой снег 10/10 300 м
[Cb cap]
-9.4 -10.1 95 -12 -12 1023.7 1014.5
03 19.02 штиль 0 4000 м слабый ливневой снег 10/10 300 м
[Cb cap]
-10.3 -11.2 93 -11 -11 1023.1 1013.9 -10.3 0.0 54
06 19.02 ЮВ 1 10 км {ливн. осадки} 10/10 600 м
[Sc]
-11.1 -12.1 92 -13 -13 1023.4 1014.1 -11.1
09 19.02 В 1 20 км 9/0
[Ac trans]
-10.7 -11.8 92 -13 -12 1023.9 1014.6
12 19.02 штиль 0 20 км 3/0
[Ci fib]
-9.1 -10.5 90 -10 -9 1023.9 1014.7
15 19.02 штиль 0 10 км 10/8 600 м
[Sc Ac As]
-11.8 -12.8 92 -12 -12 1024.7 1015.4 -7.9

 

Местоположение метеостанции Кепино (Архангельская область, Россия): широта 65.38 долгота 41.83 высота над уровнем моря 69 м.

В архиве по умолчанию представлена погода в Кепино за последнюю неделю. Архивные данные за месяц целиком и за предыдущие месяцы, начиная с января 2011 года, Вы можете получить, выбрав интересующий диапазон дат из раскрывающегося списка и нажав кнопку "Ввод!".

Внимание! Время в таблицах - всемирное. Для получения местного времени необходимо прибавить поправку, которая в Кепино равна 3 ч.

Смотрите также архив погоды в соседних городах и на ближайших метеорологических станциях:

Погода на Мудьюге Острове (Архангельская область, Россия) (93 км)
Погода в Зимнегорском Маяке (Архангельская область, Россия) (98 км)
Погода в Пинеге (Архангельская область, Россия) (104 км)
Погода в Архангельске (Архангельская область, Россия) (111 км)
Погода в Мезене (Архангельская область, Россия) (122 км)
Погода в Абрамовском маяке (Архангельская область, Россия) (129 км)
Погода в Холмогорах (Архангельская область, Россия) (129 км)
Погода в Северодвинске (Архангельская область, Россия) (131 км)
Погода на Сосновец Острове (Мурманская область, Россия) (133 км)
Погода в Пялице (Мурманская область, Россия) (138 км)

Пояснения к столбцам:

Ветер - указаны скорость ветра в м/с - средняя за 10 мин, порывы в срок и между сроками (в фигурных скобках) и направление, откуда дует ветер: С - северный, СВ - северо-восточный, В - восточный, ЮВ - юго-восточный, Ю - южный, ЮЗ - юго-западный, З - западный, СЗ - северо-западный.
Видимость - горизонтальная дальность видимости в метрах или километрах. При видимости от 1 до 10 км при отсутствии осадков обычно наблюдается дымка, при ухудшении видимости до 1 км и менее - туман. В сухую погоду видимость может ухудшаться дымом, пылью или мглою.
Явления - указаны атмосферные явления, наблюдавшиеся в срок или в последний час перед сроком; фигурными скобками обозначены явления, наблюдавшиеся между сроками (за 1-3 часа до срока); квадратными скобками обозначены град или гололедные отложения с указанием их диаметра в мм.
Облачность - указаны через наклонную черту общая и нижняя облачность в баллах и высота нижней границы облаков в метрах; квадратными скобками обозначены формы облаков: Ci - перистые, Cs - перисто-слоистые, Cc - перисто-кучевые, Ac - высококучевые, As - высокослоистые, Sc - слоисто-кучевые, Ns - слоисто-дождевые, Cu - кучевые, Cb - кучево-дождевые. Подробнее классификацию облаков см. в Атласе облаков (PDF).
T - Температура воздуха - температура, измеренная на высоте 2 м над землей.
Td - Температура точки росы - температура, при понижении до которой содержащийся в воздухе водяной пар достигнет насыщения.
f - Относительная влажность воздуха - влажноcть воздуха, измеренная на высоте 2 м над землей.
Te - Эффективная температура - температура, которую ощущает одетый по сезону человек в тени. Характеристика душности погоды. При расчете учитывается влияние влажности воздуха и скорости ветра на теплоощущения человека.
Tes - Эффективная температура на солнце - температура, которую ощущает человек, с поправкой на солнечный нагрев. Характеристика знойности погоды. Зависит от высоты солнца над горизонтом, облачности и скорости ветра. Ночью, в пасмурную погоду, а также при ветре 12 м/с и более поправка равна нулю.
P - Атмосферное давление - приведенное к уровню моря атмосферное давление.
Po - Атмосферное давление - измеренное на уровне метеостанции атмосферное давление.
Tmin - Минимальная температура - минимум температуры воздуха на высоте 2 м над землей.
Tmax - Максимальная температура - максимум температуры воздуха на высоте 2 м над землей.
R - Количество осадков - Количество выпавших осадков за период времени, мм. При наведении курсора мыши на число - период времени, за который выпало указанное количество осадков.
R24 - Количество осадков - Количество выпавших осадков за 24 часа, мм.
S - Снежный покров - Высота снежного покрова, см. При наведении курсора мыши на число - состояние снежного покрова и степень покрытия местности в баллах.